Chadron, NE

3:40 PM MDT on June 23, 2017 (GMT -0600)
Chadron Municipal

Weather History for KCDR - May, 2013

Change the Weather History Date:

Tuesday, May 21, 2013

  Actual Average Record
Temperature  
Mean Temperature 51 °F 58 °F  
Max Temperature 55 °F 72 °F 96 °F (1925)
Min Temperature 46 °F 43 °F 25 °F (1963)
Degree Days  
Heating Degree Days 14 8  
Month to date heating degree days 216 238  
Since 1 July heating degree days 6767 7001  
Cooling Degree Days 0 1  
Month to date cooling degree days 23 5  
Year to date cooling degree days 23 7  
Moisture  
Dew Point 44 °F    
Average Humidity 80    
Maximum Humidity 93    
Minimum Humidity 66    
Precipitation  
Precipitation 0.06 in 0.09 in 2.12 in (1916)
Month to date precipitation 0.67 1.77  
Year to date precipitation 5.48 5.95  
Sea Level Pressure  
Sea Level Pressure 29.93 in    
Wind  
Wind Speed 11 mph (NNE)    
Max Wind Speed 25 mph    
Max Gust Speed 31 mph    
Visibility 8 miles    
Events Rain    
T = Trace of Precipitation, MM = Missing Value Source: NWS Daily Summary

Daily Weather History Graph

Daily Weather History Graph

Search for Another Location

Airport or City:

Trip Planner

Search our weather history database for the weather conditions in past years. The results will help you decide how hot, cold, wet, or windy it might be!

Date:

Astronomy

May. 21, 2013 Rise Set
Actual Time 5:23 AM MDT 8:14 PM MDT
Civil Twilight 4:50 AM MDT 8:48 PM MDT
Nautical Twilight 4:08 AM MDT 9:30 PM MDT
Astronomical Twilight 3:19 AM MDT 10:19 PM MDT
Moon 4:26 PM MDT (5/21) 2:58 AM MDT (5/21)
Length of Visible Light 15h 57m
Length of Day
14h 51m
Waxing Gibbous, 84% of the Moon is Illuminated
May 21
Waxing Gibbous
May 24
Full
May 31
Last Quarter
Jun 8
New
Jun 16
First Quarter

Hourly Weather History & Observations

Time (MDT) Temp. Windchill Dew Point Humidity Pressure Visibility Wind Dir Wind Speed Gust Speed Precip Events Conditions
12:53 AM 46.9 °F - 44.1 °F 90% 29.91 in 10.0 mi NW 5.8 mph - 0.00 in   Overcast
1:53 AM 46.9 °F - 44.1 °F 90% 29.92 in 10.0 mi WNW 9.2 mph - 0.01 in Rain Light Rain
2:53 AM 46.9 °F - 42.1 °F 83% 29.92 in 10.0 mi NW 11.5 mph - 0.00 in   Overcast
3:53 AM 46.9 °F - 43.0 °F 86% 29.91 in 10.0 mi NW 10.4 mph - 0.00 in   Overcast
4:53 AM 48.0 °F - 43.0 °F 83% 29.91 in 10.0 mi WNW 16.1 mph 25.3 mph N/A   Overcast
5:53 AM 48.0 °F - 43.0 °F 83% 29.89 in 10.0 mi WNW 15.0 mph 24.2 mph N/A   Scattered Clouds
6:53 AM 48.9 °F - 42.1 °F 77% 29.89 in 10.0 mi WNW 21.9 mph 29.9 mph N/A   Overcast
7:53 AM 50.0 °F - 42.1 °F 74% 29.91 in 10.0 mi NW 19.6 mph 27.6 mph N/A   Overcast
8:53 AM 51.1 °F - 42.1 °F 71% 29.92 in 10.0 mi NW 18.4 mph 27.6 mph 0.00 in Rain Light Rain
9:33 AM 46.4 °F 40.4 °F 44.6 °F 93% 29.90 in 10.0 mi NE 13.8 mph - 0.00 in Rain Light Rain
9:53 AM 46.9 °F - 45.0 °F 93% 29.94 in 7.0 mi NE 9.2 mph - 0.01 in Rain Light Rain
10:07 AM 46.4 °F 41.5 °F 44.6 °F 93% 29.92 in 10.0 mi NNE 10.4 mph - 0.00 in Rain Light Rain
10:53 AM 46.9 °F - 44.1 °F 90% 29.94 in 10.0 mi NE 9.2 mph - 0.01 in Rain Light Rain
11:53 AM 48.9 °F - 45.0 °F 86% 29.94 in 10.0 mi NE 4.6 mph - 0.01 in Rain Light Rain
12:01 PM 48.2 °F - 44.6 °F 87% 29.92 in 1.5 mi East 5.8 mph - 0.01 in Rain Light Rain
12:12 PM 48.2 °F - 44.6 °F 87% 29.91 in 9.0 mi NE 3.5 mph - 0.02 in Rain Light Rain
12:19 PM 48.2 °F - 44.6 °F 87% 29.91 in 1.0 mi Calm Calm - 0.02 in Rain Light Rain
12:26 PM 48.2 °F - 44.6 °F 87% 29.91 in 0.8 mi NE 5.8 mph - 0.02 in Rain Light Rain
12:29 PM 48.2 °F - 44.6 °F 87% 29.91 in 4.0 mi NE 3.5 mph - 0.02 in Rain Light Rain
12:50 PM 50.0 °F - 44.6 °F 82% 29.91 in 1.5 mi NNE 4.6 mph - 0.02 in   Haze
12:53 PM 50.0 °F - 45.0 °F 83% 29.93 in 1.5 mi North 5.8 mph - 0.02 in   Haze
1:04 PM 51.8 °F - 44.6 °F 76% 29.91 in 2.5 mi NNE 9.2 mph - N/A   Haze
1:19 PM 50.0 °F - 44.6 °F 82% 29.91 in 10.0 mi NE 6.9 mph 17.3 mph 0.00 in Rain Light Rain
1:53 PM 50.0 °F - 45.0 °F 83% 29.94 in 10.0 mi NE 10.4 mph - 0.00 in Rain Light Rain
2:53 PM 52.0 °F - 45.0 °F 77% 29.93 in 10.0 mi NE 10.4 mph - 0.00 in   Overcast
3:53 PM 55.0 °F - 45.0 °F 69% 29.92 in 10.0 mi NE 12.7 mph - N/A   Overcast
4:53 PM 54.0 °F - 45.0 °F 72% 29.92 in 10.0 mi NNE 13.8 mph - N/A   Overcast
5:19 PM 51.8 °F - 42.8 °F 71% 29.91 in 10.0 mi NE 15.0 mph - N/A   Overcast
5:53 PM 51.1 °F - 42.1 °F 71% 29.94 in 10.0 mi NE 17.3 mph 20.7 mph N/A   Overcast
6:53 PM 48.9 °F - 43.0 °F 80% 29.95 in 10.0 mi NE 13.8 mph - N/A   Overcast
7:53 PM 48.0 °F - 41.0 °F 77% 29.96 in 10.0 mi NNE 10.4 mph - N/A   Mostly Cloudy
8:03 PM 46.4 °F 41.9 °F 41.0 °F 81% 29.94 in 10.0 mi NE 9.2 mph - N/A   Scattered Clouds
8:43 PM 46.4 °F 44.3 °F 42.8 °F 87% 29.95 in 10.0 mi ENE 4.6 mph - N/A   Overcast
8:53 PM 46.9 °F - 42.1 °F 83% 29.98 in 10.0 mi ENE 5.8 mph - N/A   Overcast
9:53 PM 46.0 °F 43.9 °F 42.1 °F 86% 30.00 in 10.0 mi ENE 4.6 mph - N/A   Overcast
10:53 PM 46.9 °F - 43.0 °F 86% 30.01 in 10.0 mi Calm Calm - N/A   Overcast
11:53 PM 46.9 °F - 42.1 °F 83% 30.00 in 10.0 mi NE 3.5 mph - N/A   Overcast